User: anonymous   Login
Location: Caltech
(34.1382°N, 118.1253°W)
Time: 13:57:32
(UTC-07:00)
Language:

Saudisat 1A - Orbit

View from above orbital plane
View from above orbital plane
View from above satellite
View from above satellite

Ground track
Ground track

The orbit data is extracted from the following two-line orbital elements,

1 26546U 00057B   16177.92431642 +.00000118 +00000-0 +28429-4 0  9997
2 26546 064.5548 010.1769 0048366 268.0554 091.5016 14.90251340853544
Epoch (UTC): 25 June 2016 22:11:00
Eccentricity: 0.0048366
inclination: 64.5548°
perigee height: 563 km
apogee height: 631 km
right ascension of ascending node: 10.1769°
argument of perigee: 268.0554°
revolutions per day: 14.90251340
mean anomaly at epoch: 91.5016°
orbit number at epoch: 85354

The dashed part of the orbit path shows where the satellite is in the earth's shadow,  

DLR